Regional Weather Roundup
Issued by NWS

Home | Current Version | Previous Version | Text Only | Print | Product List | Glossary Off
Versions: 1 2 3 4 5 6 7 8 9 10 11 12 13 14 15 16 17 18 19 20 21 22 23 24 25 26 27 28 29 30 31 32 33 34 35 36 37 38 39 40 41 42 43 44 45 46 47 48 49 50

000
ASUS43 KDTX 290901
RWRMI
MICHIGAN HOURLY REGIONAL WEATHER ROUNDUP
NATIONAL WEATHER SERVICE DETROIT/PONTIAC MI
400 AM EST THU JAN 29 2015

NOTE: "FAIR" INDICATES FEW OR NO CLOUDS BELOW 12,000 FEET WITH NO
SIGNIFICANT WEATHER AND/OR OBSTRUCTION TO VISIBILITY.

MIZ047>049-052>055-059>063-066>070-074>076-081>083-291000-
SOUTHEAST LOWER MICHIGAN

CITY           SKY/WX    TMP DP  RH WIND       PRES   REMARKS
ADRIAN         CLOUDY    27  19  72 S12       29.94F WCI  17
ALMA           CLOUDY    28  19  71 SE8       29.88F WCI  19
ANN ARBOR      CLOUDY    26  18  71 SE8       29.94F WCI  18
BAD AXE        CLOUDY    26  17  68 S15       29.94F WCI  13
CARO           CLOUDY    26  16  64 SE10G18   29.91F WCI  16
DETROIT CITY   CLOUDY    28  16  60 SE9       30.00F WCI  19
DETROIT        CLOUDY    27  18  69 SE10      29.98F WCI  17
FLINT          CLOUDY    29  16  58 S13       29.92F WCI  19
GROSSE ILE     CLOUDY    27  19  74 SE12G17   29.98F WCI  16
HILLSDALE      MIX PCPN  27  22  80 S12G20    29.87F WCI  17
HOWELL         CLOUDY    27  17  64 SE12      29.91F WCI  17

CITY           SKY/WX    TMP DP  RH WIND       PRES   REMARKS
JACKSON        MIX PCPN  28  21  75 S12       29.88F WCI  18
LAMBERTVILLE   CLOUDY    32  19  59 S12G20    29.96F WCI  23
LANSING        FRZ RAIN  28  22  78 SE9       29.89F WCI  19
LAPEER         CLOUDY    26  15  63 SE12G17   29.95F WCI  16
MASON          FLURRIES  28  20  73 S9        29.89F WCI  19
MONROE         CLOUDY    28  19  69 SE9       29.95F WCI  20
MT. CLEMENS    CLOUDY    26  18  73 SE13      29.98F WCI  15
PONTIAC        CLOUDY    26  16  65 SE14G23   29.94F WCI  14
PORT HOPE        N/A     26  16  65 SE14      29.93F WCI  14
PORT HURON     CLOUDY    25  18  74 SE13      30.02F WCI  13
TRI CITIES     CLOUDY    29  16  58 S9        29.91F WCI  20
TROY           CLOUDY    29  15  55 SE8G17    30.00F WCI  21
SAGINAW HB     CLOUDY    30  18  59 S12       29.92F WCI  21
$$
MIZ043>046-050>051-056>058-064>065-071>073-077>080-291000-
SOUTHWEST LOWER MICHIGAN

CITY           SKY/WX    TMP DP  RH WIND       PRES   REMARKS
BATTLE CREEK   CLOUDY    32  22  66 S13       29.84F WCI  22
BENTON HARBOR  MOCLDY    32  25  75 SE14G20   29.78F WCI  22
BIG RAPIDS     LGT SNOW  27  19  71 S6        29.84F WCI  21
COLDWATER      MIX PCPN  31  23  73 S12G20    29.85F WCI  21
FREMONT        CLOUDY    27  18  67 SE7       29.82F WCI  20
HOLLAND        FRZ RAIN  32  26  78 SE9       29.81F WCI  24
GRAND RAPIDS   FRZ RAIN  29  24  82 SE6       29.84F WCI  23
IONIA          FLURRIES  30  25  81 S13       29.85F WCI  20
KALAMAZOO      MIX PCPN  31  23  72 S9        29.82F WCI  23
LUDINGTON      LGT SNOW  28  23  80 SE6       29.82F WCI  22
MARSHALL       MIX PCPN  29  22  76 SE9       29.85F WCI  20
MOUNT PLEASANT CLOUDY    27  18  71 SE7       29.88F WCI  19
MUSKEGON       CLOUDY    29  22  75 SE9       29.81F WCI  20
SOUTH HAVEN    CLOUDY    33  26  76 S8        29.79F WCI  25
$$
MIZ016>042-291000-
NORTHERN LOWER MICHIGAN

CITY           SKY/WX    TMP DP  RH WIND       PRES   REMARKS
ALPENA         CLOUDY    25  13  60 S12       29.90F WCI  14
BEAVER ISLAND  CLOUDY    29  15  56 CALM      29.83F
BELLAIRE       CLOUDY    29  14  53 S7        29.85F WCI  22
CADILLAC       FLURRIES  24  16  70 SE8       29.81F WCI  15
CHARLEVOIX     CLOUDY    28  13  53 S6        29.87F WCI  22
FRANKFORT      FLURRIES  28  22  78 S10G16    29.83S WCI  18
GAYLORD        CLOUDY    24  12  60 S12       29.82F WCI  13
GRAYLING       CLOUDY    26  13  58 S6        29.85F WCI  19
HARBOR SPRINGS CLOUDY    29  11  48 CALM      29.84F
HOUGHTON LAKE  CLOUDY    25  13  60 SE9       29.85F WCI  15
MANISTEE       CLOUDY    27  21  80 SE6       29.82F WCI  20
OSCODA         CLOUDY    26  17  68 S7        29.93F WCI  19
PELLSTON       CLOUDY    28  12  51 SE5       29.85F WCI  23
ROGERS CITY    CLOUDY    26  15  61 S13G24    29.87F WCI  15
TRAVERSE CITY  CLOUDY    29  15  56 VRB7      29.83F WCI  22
$$
MIZ007>008-015-291000-
EASTERN UPPER MICHIGAN

CITY           SKY/WX    TMP DP  RH WIND       PRES   REMARKS
KINROSS        CLOUDY    27  19  74 SE10      29.84F WCI  17
MACKINAC ISLAN CLOUDY    28  11  49 S7        29.83F WCI  21
NEWBERRY       CLOUDY    25  16  68 SE8       29.82F WCI  16
S. S. MARIE    CLOUDY    26  16  65 E7        29.84F WCI  18
MUNISING         N/A     29  24  82 S6        29.79F WCI  23
$$
MIZ004>006-011>014-085-291000-
CENTRAL UPPER MICHIGAN

CITY           SKY/WX    TMP DP  RH WIND       PRES   REMARKS
MANISTIQUE     CLOUDY    30  22  72 SE9       29.81F WCI  22
ESCANABA       CLOUDY    28  27  93 SW5       29.80F WCI  23
MENOMINEE      CLOUDY    30  25  80 W3        29.78F
SAWYER-GWINN   LGT SNOW  26  23  88 S7        29.76F WCI  19
$$
MIZ001>003-009>011-084-291000-
WESTERN UPPER MICHIGAN

CITY           SKY/WX    TMP DP  RH WIND       PRES   REMARKS
IRON MOUNTAIN  CLOUDY    27  25  92 CALM      29.75F FOG
HOUGHTON       FRZ RAIN  27  25  92 SW5       29.74F FOG     WCI  22
COPPER HARBOR    N/A     30  26  85 W8        29.75F WCI  22
IRONWOOD       CLOUDY    27  25  93 W9        29.76F WCI  17
$$

ABBREVIATIONS USED IN REMARKS
   TC - TEMPERATURE IN CELSIUS
  WCI - WIND CHILL INDEX
   HX - HEAT INDEX
  VSB - VISIBILITY



USA.gov is the U.S. government's official web portal to all federal, state and local government web resources and services.